Time,TemperatureF,DewpointF,PressureIn,WindDirection,WindDirectionDegrees,WindSpeedMPH,WindSpeedGustMPH,Humidity,HourlyPrecipIn,Conditions,Clouds,dailyrainin,SoftwareType,DateUTC
2013-04-19 00:14:00,65.5,60.0,30.01,SSE,162,0.0,11.0,82,0.00,,,0.00,weatherlink.com 1.10,2013-04-19 04:14:00,
2013-04-19 00:29:00,65.2,60.0,30.01,South,181,6.0,12.0,82,0.00,,,0.00,weatherlink.com 1.10,2013-04-19 04:29:00,
2013-04-19 00:44:00,64.9,60.0,30.01,South,171,0.0,9.0,83,0.00,,,0.00,weatherlink.com 1.10,2013-04-19 04:44:00,
2013-04-19 00:59:00,64.4,59.0,30.00,SSE,165,2.0,10.0,83,0.00,,,0.00,weatherlink.com 1.10,2013-04-19 04:59:00,
2013-04-19 01:14:00,64.1,59.0,29.99,SSW,209,6.0,13.0,84,0.00,,,0.00,weatherlink.com 1.10,2013-04-19 05:14:00,
2013-04-19 01:29:00,63.8,59.0,29.99,South,181,1.0,10.0,85,0.00,,,0.00,weatherlink.com 1.10,2013-04-19 05:29:00,
2013-04-19 01:59:00,63.6,59.0,29.97,SSW,199,8.0,9.0,86,0.00,,,0.00,weatherlink.com 1.10,2013-04-19 05:59:00,
2013-04-19 02:14:00,63.5,59.0,29.96,South,176,0.0,11.0,86,0.00,,,0.00,weatherlink.com 1.10,2013-04-19 06:14:00,
2013-04-19 02:29:00,63.1,59.0,29.95,South,184,6.0,11.0,87,0.00,,,0.00,weatherlink.com 1.10,2013-04-19 06:29:00,
2013-04-19 02:44:00,62.9,59.0,29.95,South,169,5.0,9.0,88,0.00,,,0.00,weatherlink.com 1.10,2013-04-19 06:44:00,
2013-04-19 02:59:00,63.0,59.0,29.94,SSW,196,4.0,9.0,88,0.00,,,0.00,weatherlink.com 1.10,2013-04-19 06:59:00,
2013-04-19 03:14:00,63.5,60.0,29.94,South,180,0.0,7.0,88,0.00,,,0.00,weatherlink.com 1.10,2013-04-19 07:14:00,
2013-04-19 03:29:00,63.9,60.0,29.93,South,175,6.0,8.0,87,0.00,,,0.00,weatherlink.com 1.10,2013-04-19 07:29:00,
2013-04-19 03:44:00,64.0,60.0,29.92,South,184,5.0,12.0,87,0.00,,,0.00,weatherlink.com 1.10,2013-04-19 07:44:00,
2013-04-19 03:59:00,64.0,60.0,29.92,SSE,165,5.0,12.0,87,0.00,,,0.00,weatherlink.com 1.10,2013-04-19 07:59:00,
2013-04-19 04:14:00,64.2,61.0,29.91,South,180,4.0,12.0,88,0.00,,,0.00,weatherlink.com 1.10,2013-04-19 08:14:00,
2013-04-19 04:29:00,64.1,61.0,29.91,SSE,155,0.0,10.0,89,0.00,,,0.00,weatherlink.com 1.10,2013-04-19 08:29:00,
2013-04-19 04:44:00,64.0,61.0,29.91,South,190,6.0,10.0,90,0.00,,,0.00,weatherlink.com 1.10,2013-04-19 08:44:00,
2013-04-19 04:59:00,64.1,61.0,29.91,SSW,192,7.0,12.0,90,0.00,,,0.00,weatherlink.com 1.10,2013-04-19 08:59:00,
2013-04-19 05:14:00,64.3,62.0,29.91,South,190,3.0,10.0,91,0.00,,,0.00,weatherlink.com 1.10,2013-04-19 09:14:00,
2013-04-19 05:29:00,64.3,62.0,29.90,SSW,196,6.0,10.0,91,0.00,,,0.00,weatherlink.com 1.10,2013-04-19 09:29:00,
2013-04-19 05:44:00,64.0,61.0,29.90,South,191,5.0,9.0,91,0.00,,,0.00,weatherlink.com 1.10,2013-04-19 09:44:00,
2013-04-19 05:59:00,64.2,62.0,29.90,South,190,5.0,9.0,92,0.00,,,0.00,weatherlink.com 1.10,2013-04-19 09:59:00,
2013-04-19 06:14:00,64.4,62.0,29.90,South,175,8.0,9.0,92,0.00,,,0.00,weatherlink.com 1.10,2013-04-19 10:14:00,
2013-04-19 06:29:00,64.6,62.0,29.90,South,169,3.0,7.0,92,0.00,,,0.00,weatherlink.com 1.10,2013-04-19 10:29:00,
2013-04-19 06:44:00,64.8,63.0,29.90,SSE,155,3.0,8.0,92,0.00,,,0.00,weatherlink.com 1.10,2013-04-19 10:44:00,
2013-04-19 06:59:00,64.8,63.0,29.90,SSE,168,0.0,7.0,92,0.00,,,0.00,weatherlink.com 1.10,2013-04-19 10:59:00,
2013-04-19 07:14:00,64.8,63.0,29.90,South,182,0.0,7.0,94,0.01,,,0.01,weatherlink.com 1.10,2013-04-19 11:14:00,
2013-04-19 07:29:00,65.0,63.0,29.90,South,182,0.0,5.0,94,0.01,,,0.01,weatherlink.com 1.10,2013-04-19 11:29:00,
2013-04-19 07:44:00,65.4,64.0,29.90,South,177,0.0,6.0,94,0.01,,,0.01,weatherlink.com 1.10,2013-04-19 11:44:00,
2013-04-19 07:59:00,65.8,64.0,29.89,SSE,164,3.0,9.0,94,0.01,,,0.01,weatherlink.com 1.10,2013-04-19 11:59:00,
2013-04-19 08:15:00,66.5,65.0,29.89,South,186,1.0,7.0,94,0.00,,,0.01,weatherlink.com 1.10,2013-04-19 12:15:00,
2013-04-19 08:30:00,67.6,66.0,29.89,SW,230,8.0,10.0,93,0.00,,,0.01,weatherlink.com 1.10,2013-04-19 12:30:00,
2013-04-19 08:45:00,68.5,66.0,29.89,South,186,4.0,10.0,92,0.00,,,0.01,weatherlink.com 1.10,2013-04-19 12:45:00,
2013-04-19 09:00:00,69.5,66.0,29.88,South,177,3.0,13.0,89,0.00,,,0.01,weatherlink.com 1.10,2013-04-19 13:00:00,
2013-04-19 09:15:00,70.1,66.0,29.88,SSW,205,9.0,19.0,87,0.00,,,0.01,weatherlink.com 1.10,2013-04-19 13:15:00,
2013-04-19 09:30:00,70.5,66.0,29.87,SW,217,1.0,18.0,85,0.00,,,0.01,weatherlink.com 1.10,2013-04-19 13:30:00,
2013-04-19 09:45:00,71.5,66.0,29.87,SW,227,14.0,19.0,83,0.00,,,0.01,weatherlink.com 1.10,2013-04-19 13:45:00,
2013-04-19 10:00:00,71.5,66.0,29.87,SSW,194,4.0,25.0,82,0.00,,,0.01,weatherlink.com 1.10,2013-04-19 14:00:00,
2013-04-19 10:15:00,72.0,66.0,29.88,South,178,9.0,14.0,82,0.00,,,0.01,weatherlink.com 1.10,2013-04-19 14:15:00,
2013-04-19 10:30:00,73.2,66.0,29.87,SSW,206,20.0,20.0,79,0.00,,,0.01,weatherlink.com 1.10,2013-04-19 14:30:00,
2013-04-19 10:45:00,73.6,67.0,29.87,SW,225,7.0,17.0,79,0.00,,,0.01,weatherlink.com 1.10,2013-04-19 14:45:00,
2013-04-19 11:00:00,74.3,66.0,29.86,SW,215,9.0,20.0,75,0.00,,,0.01,weatherlink.com 1.10,2013-04-19 15:00:00,
2013-04-19 11:15:00,74.2,66.0,29.85,SW,216,8.0,21.0,76,0.00,,,0.01,weatherlink.com 1.10,2013-04-19 15:15:00,
2013-04-19 11:30:00,76.2,67.0,29.85,SW,225,15.0,21.0,73,0.00,,,0.01,weatherlink.com 1.10,2013-04-19 15:30:00,
2013-04-19 11:45:00,74.9,66.0,29.85,SW,236,13.0,20.0,74,0.00,,,0.01,weatherlink.com 1.10,2013-04-19 15:45:00,
2013-04-19 12:00:00,74.5,66.0,29.85,South,186,4.0,17.0,75,0.00,,,0.01,weatherlink.com 1.10,2013-04-19 16:00:00,
2013-04-19 12:15:00,74.4,66.0,29.84,WSW,238,9.0,19.0,74,0.00,,,0.01,weatherlink.com 1.10,2013-04-19 16:15:00,
2013-04-19 12:30:00,77.2,68.0,29.82,South,177,0.0,14.0,74,0.00,,,0.01,weatherlink.com 1.10,2013-04-19 16:30:00,
2013-04-19 12:45:00,76.9,66.0,29.81,SSW,206,12.0,19.0,69,0.00,,,0.01,weatherlink.com 1.10,2013-04-19 16:45:00,
2013-04-19 13:00:00,78.1,67.0,29.80,SSW,207,13.0,20.0,68,0.00,,,0.01,weatherlink.com 1.10,2013-04-19 17:00:00,
2013-04-19 13:15:00,78.9,67.0,29.79,SW,234,6.0,20.0,67,0.00,,,0.01,weatherlink.com 1.10,2013-04-19 17:15:00,
2013-04-19 13:30:00,78.1,67.0,29.78,South,186,18.0,21.0,68,0.00,,,0.01,weatherlink.com 1.10,2013-04-19 17:30:00,
2013-04-19 13:45:00,79.2,67.0,29.77,South,188,6.0,25.0,67,0.00,,,0.01,weatherlink.com 1.10,2013-04-19 17:45:00,
2013-04-19 14:00:00,79.3,67.0,29.76,SSW,209,8.0,25.0,67,0.00,,,0.01,weatherlink.com 1.10,2013-04-19 18:00:00,
2013-04-19 14:15:00,79.8,67.0,29.75,SW,217,16.0,27.0,65,0.00,,,0.01,weatherlink.com 1.10,2013-04-19 18:15:00,
2013-04-19 14:31:00,79.6,66.0,29.74,SSW,203,11.0,31.0,64,0.00,,,0.01,weatherlink.com 1.10,2013-04-19 18:31:00,
2013-04-19 14:46:00,80.6,67.0,29.74,SW,234,22.0,27.0,63,0.00,,,0.01,weatherlink.com 1.10,2013-04-19 18:46:00,
2013-04-19 15:01:00,81.8,67.0,29.73,SSW,203,9.0,26.0,61,0.00,,,0.01,weatherlink.com 1.10,2013-04-19 19:01:00,
2013-04-19 15:16:00,80.5,66.0,29.71,SSW,212,10.0,26.0,62,0.00,,,0.01,weatherlink.com 1.10,2013-04-19 19:16:00,
2013-04-19 15:31:00,79.9,67.0,29.71,SSW,207,6.0,24.0,64,0.00,,,0.01,weatherlink.com 1.10,2013-04-19 19:31:00,
2013-04-19 15:46:00,80.9,67.0,29.70,SSW,196,13.0,23.0,63,0.00,,,0.01,weatherlink.com 1.10,2013-04-19 19:46:00,
2013-04-19 16:01:00,80.8,67.0,29.70,SSW,200,17.0,21.0,63,0.00,,,0.01,weatherlink.com 1.10,2013-04-19 20:01:00,
2013-04-19 16:16:00,80.4,67.0,29.69,SSW,200,6.0,23.0,64,0.00,,,0.01,weatherlink.com 1.10,2013-04-19 20:16:00,
2013-04-19 16:31:00,80.1,67.0,29.68,WSW,240,14.0,21.0,64,0.00,,,0.01,weatherlink.com 1.10,2013-04-19 20:31:00,
2013-04-19 16:46:00,80.3,67.0,29.68,SSW,202,10.0,24.0,65,0.00,,,0.01,weatherlink.com 1.10,2013-04-19 20:46:00,
2013-04-19 17:01:00,80.1,68.0,29.67,SSW,204,11.0,22.0,66,0.00,,,0.01,weatherlink.com 1.10,2013-04-19 21:01:00,
2013-04-19 17:16:00,79.6,67.0,29.66,South,191,10.0,22.0,65,0.00,,,0.01,weatherlink.com 1.10,2013-04-19 21:16:00,
2013-04-19 17:31:00,79.2,67.0,29.66,SSE,167,5.0,14.0,67,0.00,,,0.01,weatherlink.com 1.10,2013-04-19 21:31:00,
2013-04-19 17:46:00,78.9,67.0,29.67,SSW,202,9.0,19.0,68,0.00,,,0.01,weatherlink.com 1.10,2013-04-19 21:46:00,
2013-04-19 18:01:00,76.3,68.0,29.67,SW,217,14.0,20.0,76,0.01,,,0.02,weatherlink.com 1.10,2013-04-19 22:01:00,
2013-04-19 18:16:00,72.0,67.0,29.67,South,187,13.0,18.0,85,0.02,,,0.03,weatherlink.com 1.10,2013-04-19 22:16:00,
2013-04-19 18:31:00,70.2,67.0,29.68,South,187,6.0,9.0,89,0.06,,,0.07,weatherlink.com 1.10,2013-04-19 22:31:00,
2013-04-19 18:46:00,68.9,66.0,29.70,West,264,9.0,17.0,90,0.07,,,0.08,weatherlink.com 1.10,2013-04-19 22:46:00,
2013-04-19 19:01:00,67.1,65.0,29.70,WSW,250,8.0,19.0,92,0.21,,,0.23,weatherlink.com 1.10,2013-04-19 23:01:00,
2013-04-19 19:28:00,65.7,64.0,29.71,SW,232,7.0,19.0,94,0.59,,,0.66,weatherlink.com 1.10,2013-04-19 23:28:00,
2013-04-19 19:46:00,65.7,64.0,29.73,SW,223,7.0,18.0,94,0.67,,,0.76,weatherlink.com 1.10,2013-04-19 23:46:00,
2013-04-19 20:01:00,65.2,64.0,29.72,SSW,197,0.0,20.0,94,0.58,,,0.81,weatherlink.com 1.10,2013-04-20 00:01:00,
2013-04-19 20:16:00,65.0,64.0,29.72,South,188,7.0,12.0,95,0.34,,,0.83,weatherlink.com 1.10,2013-04-20 00:16:00,
2013-04-19 20:31:00,65.1,64.0,29.73,SSW,198,0.0,12.0,95,0.18,,,0.86,weatherlink.com 1.10,2013-04-20 00:31:00,
2013-04-19 20:46:00,65.1,64.0,29.71,SW,221,5.0,11.0,95,0.12,,,0.89,weatherlink.com 1.10,2013-04-20 00:46:00,
2013-04-19 21:01:00,64.9,64.0,29.71,SSE,164,11.0,13.0,95,0.08,,,0.89,weatherlink.com 1.10,2013-04-20 01:01:00,
2013-04-19 21:16:00,64.9,63.0,29.73,SSW,203,4.0,20.0,94,0.07,,,0.90,weatherlink.com 1.10,2013-04-20 01:16:00,
2013-04-19 21:31:00,64.9,63.0,29.74,SSW,212,7.0,13.0,94,0.04,,,0.90,weatherlink.com 1.10,2013-04-20 01:31:00,
2013-04-19 21:46:00,65.2,64.0,29.75,SSW,210,6.0,13.0,94,0.02,,,0.91,weatherlink.com 1.10,2013-04-20 01:46:00,
2013-04-19 22:01:00,65.3,64.0,29.75,SSW,204,6.0,16.0,95,0.02,,,0.91,weatherlink.com 1.10,2013-04-20 02:01:00,
2013-04-19 22:16:00,65.5,64.0,29.75,SW,223,4.0,16.0,95,0.02,,,0.92,weatherlink.com 1.10,2013-04-20 02:16:00,
2013-04-19 22:31:00,65.4,64.0,29.73,SW,235,8.0,12.0,94,0.03,,,0.93,weatherlink.com 1.10,2013-04-20 02:31:00,
2013-04-19 22:46:00,65.3,64.0,29.73,SSW,199,3.0,12.0,94,0.03,,,0.94,weatherlink.com 1.10,2013-04-20 02:46:00,
2013-04-19 23:01:00,65.2,64.0,29.73,SW,219,10.0,18.0,94,0.04,,,0.95,weatherlink.com 1.10,2013-04-20 03:01:00,
2013-04-19 23:16:00,65.0,63.0,29.74,SW,233,12.0,19.0,93,0.03,,,0.95,weatherlink.com 1.10,2013-04-20 03:16:00,
2013-04-19 23:31:00,64.9,63.0,29.73,SW,226,8.0,15.0,93,0.03,,,0.96,weatherlink.com 1.10,2013-04-20 03:31:00,
2013-04-19 23:46:00,64.4,63.0,29.73,SW,224,3.0,10.0,94,0.03,,,0.97,weatherlink.com 1.10,2013-04-20 03:46:00,